STARLINK-35164

Last updated on Mon Oct 06 2025 00:02:06 GMT+0000 (Coordinated Universal Time)

1 65519U 25198AD 25278.50001156 .00123465 00000+0 21991-2 0 9997 2 65519 53.1587 280.4055 0001191 74.3162 123.8671 15.49230088 5593
UTC large
Height (km)
Speed (km/s)
/
Latitude / Longitude
Inclination (degrees)
Orbital Period (minutes)
Azimuth
Elevation
Range (km)
Doppler Factor

Next 0 passes for location: London (51.5072 / 0.1276)

Sorry there are no passes over London.
STARLINK-35164